Regional Weather Roundup
Issued by NWS Cleveland, OH

Home | Current Version | Previous Version | Text Only | Print | Product List | Glossary Off
Versions: 1 2 3 4 5 6 7 8 9 10 11 12 13 14 15 16 17 18 19 20 21 22 23 24 25 26 27 28 29 30 31 32 33 34 35 36 37 38 39 40 41 42 43 44 45 46 47 48 49 50

000
ASUS41 KCLE 240610
RWRCLE
OHIO REGIONAL WEATHER ROUNDUP
NATIONAL WEATHER SERVICE WILMINGTON, OH
200 AM EDT THU JUL 24 2014

NOTE: "FAIR" INDICATES FEW OR NO CLOUDS BELOW 12,000 FEET WITH NO
SIGNIFICANT WEATHER AND/OR OBSTRUCTIONS TO VISIBILITY.

OHZ001>008-015>018-024>027-034-035-043-044-240700-
   NORTHWEST OHIO

CITY           SKY/WX    TMP DP  RH WIND       PRES   REMARKS
DEFIANCE       CLOUDY    63  60  90 N5        30.08S
FINDLAY        CLEAR     60  57  89 CALM      30.05F
TOLEDO EXPRESS PTCLDY    59  56  89 N7        30.07F
TOLEDO METCALF CLEAR     62  52  69 NE6       30.07S
LIMA           FOG       58  56  93 CALM      30.06F VSB 3/4
$$

OHZ009>014-019>023-028>033-038-089-240700-
   NORTHEAST OHIO

CITY           SKY/WX    TMP DP  RH WIND       PRES   REMARKS
CLE-HOPKINS    MOCLDY    64  58  80 N10       30.06S
CLE-LAKEFRONT  MOCLDY    66  58  75 N15G22    30.03S
CUY CO. ARPT   NOT AVBL
LORAIN-ELYRIA  CLOUDY    65  58  78 N6        30.05F
ASHTABULA      CLOUDY    63  54  72 N5        30.04S
AKRON-CANTON   PTCLDY    60  55  83 N7        30.04S
WOOSTER        CLEAR     57  54  89 N9        30.04F
MANSFIELD      PTCLDY    57  55  93 N7        30.05F
YOUNGSTOWN     MOCLDY    59  57  93 NW3       30.03S
$$

OHZ042-051>053-060>062-070>072-077>081-240700-
  SOUTHWEST OHIO

CITY           SKY/WX    TMP DP  RH WIND       PRES   REMARKS
CINC-COVINGTON CLOUDY    68  65  90 NE13      30.01S
CINC-LUNKEN    CLOUDY    68  65  90 NE8       30.01F
HAMILTON       CLOUDY    68  62  81 NE9       30.04R
DAYTON         PTCLDY    62  58  86 E5        30.05S
WRIGHT-PAT AFB CLEAR     62  58  87 NE7       30.04S
DAYTON GENERAL CLOUDY    65  60  84 E13       30.02F
WILMINGTON     CLOUDY    64  55  72 NE9       30.03S
$$

OHZ036-037-039>041-045>050-054>059-063>069-073>076-082>088-240700-
  CENTRAL AND SOUTHEAST OHIO

CITY           SKY/WX    TMP DP  RH WIND       PRES   REMARKS
COLUMBUS       MOCLDY    63  55  75 NE6       30.03S
OSU AIRPORT    CLEAR     60  55  83 NE7       30.04S
BOLTON FIELD   NOT AVBL
RICKENBACK AFB NOT AVBL
NEWARK         CLOUDY    64  55  72 NE5       30.03S
MARION         CLEAR     57  54  89 N3        30.05F
LANCASTER      CLOUDY    63  58  83 NE5       30.03F
ZANESVILLE     CLOUDY    64  56  75 N6        30.02F
NEW PHILLY     CLOUDY    63  58  83 NW5       30.03F
$$



USA.gov is the U.S. government's official web portal to all federal, state and local government web resources and services.